Tracking 18673 objects as of 28-June-2017
HD Live streaming from Space Station
objects crossing your sky now

METEOSAT 3

Track METEOSAT 3 now!
METEOSAT 3 is classified as:


NORAD ID: 19215
Int'l Code: 1988-051A
Perigee: 36,729.1 km
Apogee: 36,775.3 km
Inclination: 16.1 °
Period: 1,485.3 minutes
Semi major axis: 43123 km
RCS: 4.1367 m2 (large)
Launch date: June 15, 1988
Source: European Space Agency (ESA)
Launch site: FRENCH GUIANA (FRGUI)
Your satellite tracking list
Your tracking list is empty





NASA's NSSDC Master Catalog

Two Line Element Set (TLE):
1 19215U 88051A   17176.35313759 -.00000120 +00000-0 +00000-0 0  9992
2 19215 016.0879 008.6912 0005349 284.1650 323.8619 00.96947491091612
Source of the keplerian elements: AFSPC